Location: Sungai Apap
(2.6167°N, 113.3833°E)
Time: 14:26:10
(UTC+00:00)

Cosmos 1892 Rocket - Pass Details

Date: 04 August 2024
Orbit: 602 x 628 km, 82.5° (Epoch: 17 September)

Event Time Altitude Azimuth Distance (km) Brightness Sun altitude
Exits shadow 11:50:35 11° 46° (NE) 1,955 5.9 -17.8°
Drops below altitude 10° 11:50:39 10° 45° (NE) 1,975 5.9 -17.8°
Sets 11:53:21 0° 29° (NNE) 2,885 6.9 -18.4°
